TimeAKST,TemperatureF,Dew PointF,Humidity,Sea Level PressureIn,VisibilityMPH,Wind Direction,Wind SpeedMPH,Gust SpeedMPH,PrecipitationIn,Events,Conditions,WindDirDegrees,DateUTC
12:44 AM,39.2,39.2,100,30.11,2.5,Calm,Calm,-,0.00,Rain,Light Rain,0,2012-12-10 09:44:00
12:51 AM,39.2,39.2,100,30.10,5.0,Calm,Calm,-,0.00,,Overcast,0,2012-12-10 09:51:00
1:43 AM,42.8,41.0,93,30.11,8.0,Calm,Calm,-,0.00,,Overcast,0,2012-12-10 10:43:00
1:53 AM,42.1,41.0,96,30.11,10.0,Calm,Calm,-,0.00,,Overcast,0,2012-12-10 10:53:00
3:05 AM,41.0,41.0,100,30.09,2.5,ESE,3.5,-,0.01,,Overcast,120,2012-12-10 12:05:00
3:13 AM,42.8,41.0,93,30.09,4.0,Calm,Calm,-,0.01,,Overcast,0,2012-12-10 12:13:00
3:32 AM,42.8,41.0,93,30.08,4.0,SE,4.6,-,0.01,,Overcast,130,2012-12-10 12:32:00
3:53 AM,43.0,43.0,100,30.09,8.0,SSE,3.5,-,0.01,,Overcast,150,2012-12-10 12:53:00
4:02 AM,42.8,42.8,100,30.07,2.5,ESE,3.5,-,N/A,,Overcast,120,2012-12-10 13:02:00
4:10 AM,42.8,42.8,100,30.07,1.0,ESE,3.5,-,N/A,,Overcast,110,2012-12-10 13:10:00
4:19 AM,42.8,42.8,100,30.07,1.8,Calm,Calm,-,N/A,,Overcast,0,2012-12-10 13:19:00
4:23 AM,42.8,42.8,100,30.07,3.0,SE,3.5,-,N/A,,Overcast,140,2012-12-10 13:23:00
4:49 AM,44.6,42.8,93,30.06,10.0,SSE,3.5,-,0.00,Rain,Light Rain,160,2012-12-10 13:49:00
4:53 AM,44.1,43.0,96,30.06,10.0,SSE,3.5,-,0.00,Rain,Light Rain,160,2012-12-10 13:53:00
5:50 AM,42.8,42.8,100,30.05,9.0,Calm,Calm,-,0.00,,Overcast,0,2012-12-10 14:50:00
5:53 AM,42.1,41.0,96,30.05,9.0,Calm,Calm,-,0.00,Rain,Light Rain,0,2012-12-10 14:53:00
6:08 AM,42.8,42.8,100,30.05,3.0,Calm,Calm,-,0.00,Rain,Light Rain,0,2012-12-10 15:08:00
6:28 AM,44.6,42.8,93,30.05,9.0,Calm,Calm,-,0.01,Rain,Light Rain,0,2012-12-10 15:28:00
6:53 AM,44.1,43.0,96,30.04,10.0,SSE,3.5,-,0.03,Rain,Light Rain,150,2012-12-10 15:53:00
7:53 AM,42.1,42.1,100,30.02,4.0,SE,3.5,-,0.04,Rain,Light Rain,130,2012-12-10 16:53:00
8:21 AM,44.6,42.8,93,30.00,9.0,SE,3.5,-,0.02,Rain,Light Rain,130,2012-12-10 17:21:00
8:31 AM,42.8,42.8,100,30.00,8.0,SSE,3.5,-,0.03,Rain,Rain,150,2012-12-10 17:31:00
8:53 AM,44.1,44.1,100,30.00,6.0,South,3.5,-,0.06,Rain,Rain,180,2012-12-10 17:53:00
9:53 AM,45.0,44.1,97,29.95,10.0,South,8.1,-,0.06,Rain,Light Rain,180,2012-12-10 18:53:00
10:46 AM,44.6,44.6,100,29.90,2.5,South,8.1,-,0.03,Rain,Light Rain,170,2012-12-10 19:46:00
10:53 AM,45.0,44.1,97,29.91,3.0,SSE,8.1,-,0.03,Rain,Light Rain,160,2012-12-10 19:53:00
11:53 AM,45.0,44.1,97,29.86,7.0,South,9.2,17.3,0.03,Rain,Light Rain,170,2012-12-10 20:53:00
12:53 PM,45.0,44.1,97,29.81,8.0,South,6.9,-,0.04,Rain,Light Rain,170,2012-12-10 21:53:00
1:44 PM,44.6,44.6,100,29.76,7.0,South,9.2,23.0,0.08,Rain,Light Rain,170,2012-12-10 22:44:00
1:53 PM,46.0,44.1,93,29.76,8.0,South,8.1,19.6,0.09,Rain,Light Rain,180,2012-12-10 22:53:00
2:53 PM,45.0,44.1,97,29.72,5.0,South,8.1,-,0.04,Rain,Rain,180,2012-12-10 23:53:00
3:42 PM,44.6,44.6,100,29.68,8.0,South,11.5,20.7,0.08,Rain,Light Rain,190,2012-12-11 00:42:00
3:53 PM,45.0,43.0,93,29.67,10.0,South,9.2,18.4,0.09,Rain,Light Rain,180,2012-12-11 00:53:00
4:34 PM,44.6,44.6,100,29.63,4.0,Variable,5.8,-,0.07,Rain,Heavy Rain,0,2012-12-11 01:34:00
4:53 PM,45.0,43.0,93,29.62,6.0,SSE,8.1,19.6,0.12,Rain,Rain,160,2012-12-11 01:53:00
5:31 PM,44.6,42.8,93,29.59,7.0,South,10.4,20.7,0.07,Rain,Light Rain,180,2012-12-11 02:31:00
5:53 PM,44.1,42.1,93,29.58,10.0,SSE,11.5,21.9,0.09,Rain,Light Rain,160,2012-12-11 02:53:00
6:04 PM,44.6,41.0,87,29.56,10.0,South,12.7,24.2,0.01,Rain,Light Rain,180,2012-12-11 03:04:00
6:12 PM,44.6,41.0,87,29.56,10.0,South,11.5,24.2,0.01,Rain,Light Rain,180,2012-12-11 03:12:00
6:28 PM,44.6,42.8,93,29.54,10.0,SSE,9.2,21.9,0.01,Rain,Light Rain,160,2012-12-11 03:28:00
6:38 PM,44.6,42.8,93,29.53,5.0,SSE,12.7,20.7,0.02,Rain,Rain,150,2012-12-11 03:38:00
6:53 PM,44.1,42.1,93,29.53,5.0,SSE,15.0,23.0,0.04,Rain,Light Rain,160,2012-12-11 03:53:00
7:53 PM,43.0,41.0,93,29.50,4.0,SSE,17.3,32.2,0.03,Rain,Light Rain,160,2012-12-11 04:53:00
8:24 PM,42.8,41.0,93,29.47,10.0,SSE,15.0,28.8,0.02,,Overcast,160,2012-12-11 05:24:00
8:53 PM,44.1,42.1,93,29.47,7.0,SSE,11.5,26.5,0.04,Rain,Light Rain,160,2012-12-11 05:53:00
9:53 PM,44.1,42.1,93,29.44,8.0,South,12.7,21.9,0.02,Rain,Light Rain,180,2012-12-11 06:53:00
10:13 PM,44.6,42.8,93,29.43,10.0,South,11.5,20.7,0.01,,Overcast,170,2012-12-11 07:13:00
10:53 PM,44.1,41.0,89,29.41,10.0,South,10.4,17.3,0.02,Rain,Light Rain,180,2012-12-11 07:53:00
11:12 PM,44.6,42.8,93,29.40,6.0,SSW,13.8,23.0,0.03,Rain,Light Rain,200,2012-12-11 08:12:00
11:17 PM,41.0,39.2,93,29.40,3.0,SSW,12.7,27.6,0.09,Rain,Heavy Rain,200,2012-12-11 08:17:00
11:26 PM,41.0,37.4,87,29.39,6.0,South,9.2,23.0,0.12,Rain,Light Rain,180,2012-12-11 08:26:00
11:38 PM,41.0,39.2,93,29.39,10.0,SSW,8.1,-,0.13,Rain,Light Rain,200,2012-12-11 08:38:00
11:53 PM,42.1,39.9,92,29.39,9.0,SSW,5.8,-,0.15,Rain,Light Rain,200,2012-12-11 08:53:00